Location: Angwan Shehu
(11.2514°N, 7.4613°E)
Time: 05:23:37
(UTC+00:00)

A-11 Canister half - All Passes

Search period start: 14 April 2021 00:00
Search period end: 24 April 2021 00:00
Orbit: 1525 x 1683 km, 47.3° (Epoch: 12 April)

Date Brightness Start Highest point End Pass type
(mag) Time Alt. Az. Time Alt. Az. Time Alt. Az.
14 Apr - 00:17:57 10° NW 00:27:49 74° NE 00:37:21 10° SE night (unlit)
14 Apr - 02:25:23 10° W 02:32:25 23° SW 02:39:22 10° S visible
14 Apr - 13:15:13 10° SSW 13:24:45 59° SE 13:34:34 10° NE daylight
14 Apr - 15:21:20 10° WSW 15:30:00 34° NW 15:38:51 10° NNE daylight
14 Apr - 21:54:17 10° N 21:59:52 16° NE 22:05:21 10° ENE visible
14 Apr - 23:56:18 10° NW 00:06:09 69° NE 00:15:40 10° SE visible
15 Apr - 02:03:22 10° WNW 02:10:46 25° SW 02:18:04 10° S night (unlit)
15 Apr - 12:53:40 10° SSW 13:03:05 55° SE 13:12:48 10° NE daylight
15 Apr - 14:59:28 10° WSW 15:08:15 36° NW 15:17:16 10° NNE daylight
15 Apr - 21:32:53 10° N 21:38:03 15° NNE 21:43:08 10° ENE visible
15 Apr - 23:34:38 10° NNW 23:44:29 65° NE 23:53:57 10° SE visible
16 Apr - 01:41:23 10° WNW 01:49:08 27° SW 01:56:43 10° S night (unlit)
16 Apr - 12:32:07 10° SSW 12:41:26 51° SE 12:51:00 10° NE daylight
16 Apr - 14:37:36 10° WSW 14:46:31 38° NW 14:55:41 10° NNE daylight
16 Apr - 21:11:32 10° N 21:16:14 14° NNE 21:20:52 10° ENE visible
16 Apr - 23:12:59 10° NNW 23:22:48 61° NE 23:32:15 10° SE visible
17 Apr - 01:19:27 10° WNW 01:27:29 29° SW 01:35:21 10° S night (unlit)
17 Apr - 12:10:37 10° SSW 12:19:47 48° SE 12:29:12 10° ENE daylight
17 Apr - 14:15:47 10° WSW 14:24:48 41° NW 14:34:06 10° NNE daylight
17 Apr - 20:50:14 10° N 20:54:24 13° NNE 20:58:30 10° ENE visible
17 Apr - 22:51:21 10° NNW 23:01:06 57° NE 23:10:31 10° SE visible
18 Apr - 00:57:31 10° WNW 01:05:50 32° SW 01:13:57 10° S night (unlit)
18 Apr - 11:49:06 10° SSW 11:58:07 44° SE 12:07:23 10° ENE daylight
18 Apr - 13:53:57 10° WSW 14:03:05 43° NW 14:12:30 10° NNE daylight
18 Apr - 20:29:02 10° N 20:32:33 12° NNE 20:36:04 10° NE visible
18 Apr - 22:29:42 10° NNW 22:39:25 54° NE 22:48:46 10° ESE visible
19 Apr - 00:35:37 10° WNW 00:44:11 34° SW 00:52:33 10° S night (unlit)
19 Apr - 11:27:37 10° SSW 11:36:28 41° SE 11:45:33 10° ENE daylight
19 Apr - 13:32:09 10° WSW 13:41:22 46° NW 13:50:53 10° NNE daylight
19 Apr - 15:47:45 10° NNW 15:48:36 10° NNW 15:49:26 10° NNW daylight
19 Apr - 20:07:57 10° NNE 20:10:43 11° NNE 20:13:27 10° NE visible
19 Apr - 22:08:04 10° NNW 22:17:43 50° NE 22:27:01 10° ESE visible
20 Apr - 00:13:45 10° WNW 00:22:32 37° SW 00:31:06 10° SSE night (unlit)
20 Apr - 11:06:09 10° SSW 11:14:49 38° SE 11:23:42 10° ENE daylight
20 Apr - 13:10:22 10° WSW 13:19:40 49° NW 13:29:16 10° NNE daylight
20 Apr - 15:24:21 10° NW 15:26:43 11° NNW 15:29:06 10° NNW daylight
20 Apr - 19:47:13 10° NNE 19:48:51 10° NNE 19:50:28 10° NE visible
20 Apr - 21:46:28 10° NNW 21:56:00 47° NE 22:05:14 10° ESE visible
20 Apr - 23:51:54 10° WNW 00:00:53 40° SW 00:09:38 10° SSE night (unlit)
21 Apr - 10:44:42 10° S 10:53:10 35° SE 11:01:50 10° ENE daylight
21 Apr - 12:48:37 10° WSW 12:57:57 52° NW 13:07:39 10° NNE daylight
21 Apr - 15:01:39 10° NW 15:04:53 12° NNW 15:08:08 10° N daylight
21 Apr - 21:24:51 10° NNW 21:34:18 44° NE 21:43:27 10° ESE visible
21 Apr - 23:30:02 10° WNW 23:39:13 43° SW 23:48:09 10° SSE visible
22 Apr - 10:23:17 10° S 10:31:31 33° SE 10:39:56 10° ENE daylight
22 Apr - 12:26:51 10° WSW 12:36:15 56° NW 12:46:01 10° NNE daylight
22 Apr - 14:39:08 10° NW 14:43:02 13° NNW 14:46:57 10° N daylight
22 Apr - 21:03:14 10° NNW 21:12:34 42° NE 21:21:39 10° ESE visible
22 Apr - 23:08:13 10° WNW 23:17:34 46° SW 23:26:40 10° SSE visible
23 Apr - 10:01:52 10° S 10:09:52 30° SE 10:18:01 10° ENE daylight
23 Apr - 12:05:07 10° SW 12:14:34 59° NW 12:24:22 10° NNE daylight
23 Apr - 14:16:45 10° WNW 14:21:11 14° NNW 14:25:41 10° N daylight
23 Apr - 20:41:39 10° NNW 20:50:51 39° NE 20:59:48 10° ESE visible
23 Apr - 22:46:25 10° NW 22:55:55 50° SW 23:05:09 10° SSE visible
